Location: Marysville Observatory
(48.1092°N, 122.1645°W)
Time: 06:45:25

ISS - Visible Passes

Search period start: 25 October 2016 00:00
Search period end: 04 November 2016 00:00
Orbit: 400 x 409 km, 51.6° (Epoch: 25 October)

Date Brightness Start Highest point End Pass type
(mag) Time Alt. Az. Time Alt. Az. Time Alt. Az.
01 Nov -0.9 07:15:45 10° SSW 07:18:29 25° SE 07:21:13 10° E visible
02 Nov -0.4 06:24:15 10° S 06:26:13 15° SE 06:28:12 10° E visible
03 Nov -2.4 07:06:39 10° SW 07:09:49 48° SSE 07:12:58 10° ENE visible
